Retour au catalogue

MIDAS 3 DEB

ActifPO
NORAD 6215·DEBRIS·🇺🇸 United States

Lancé Jul 12, 1961 depuis Vandenberg Space Force Base

Loading…

Prochains Passages (prochaines 24 heures)

TLE

FraisSource: Space-Track

Époque: Sep 13, 2026, 20:15 UTC

1 06215U 61018E   26256.84386591  .00000018  00000-0  58513-2 0  9998
2 06215  91.1296 207.3392 0081904 107.2380 253.7475  8.90944130387811

Suivez MIDAS 3 DEB en temps réel avec AllMySat

Download on the App Store